Location: College Park
(38.9810°N, 76.9370°W)
Time: 11:12:19

Hubble Space Telescope - Pass Details

Date: 11 March 2018
Orbit: 537 x 541 km, 28.5° (Epoch: 23 March)

Event Time Altitude Azimuth Distance (km) Brightness Sun altitude
Rises 20:29:56 0° 224° (SW) 2,673 4.8 -16.2°
Reaches altitude 10° 20:33:07 10° 199° (SSW) 1,783 3.5 -16.8°
Maximum altitude 20:35:17 14° 167° (SSE) 1,545 2.9 -17.2°
Enters shadow 20:35:34 14° 162° (SSE) 1,549 2.8 -17.2°
